EW3013 Weather Reports


Display with metric or nautical units.
time (UTC)temp
F
wind
direction
speed
MPH
gust
MPH
rain 1hr
in
rain 24hr
in
rain mn
in
humidity
%
barometer
mb
20260504100143 40 332 2.0 4.0 0.00 0.00 0.00 69 1013.3
20260504090122 42 138 0.0 1.0 0.00 0.00 0.00 67 1013.2
20260504081120 43 201 0.0 1.0 0.00 0.00 0.00 64 1013.1
20260504080142 43 308 0.0 1.0 0.00 0.00 0.00 64 1013.1
20260504070121 43 109 0.0 1.0 0.00 0.00 0.00 65 1013.1
20260504060142 43 190 0.0 1.0 0.00 0.00 0.00 65 1013.2
20260504050121 45 159 0.0 0.0 0.00 0.00 0.00 62 1013.3
20260504045121 45 101 0.0 0.0 0.00 0.00 0.00 62 1013.2
20260504044142 45 141 0.0 2.0 0.00 0.00 0.00 63 1013.2
20260504043121 45 140 0.0 1.0 0.00 0.00 0.00 62 1013.1
20260504042121 45 314 0.0 0.0 0.00 0.00 0.00 61 1013.1
20260504041121 46 304 0.0 2.0 0.00 0.00 0.00 61 1012.9
20260504040121 46 172 0.0 0.0 0.00 0.00 0.00 61 1012.8
20260504035121 46 156 0.0 0.0 0.00 0.00 0.00 60 1012.9
20260504034121 46 241 0.0 1.0 0.00 0.00 0.00 59 1012.7
20260504033121 47 326 0.0 1.0 0.00 0.00 0.00 58 1012.9
20260504032121 47 61 0.0 1.0 0.00 0.00 0.00 57 1012.8
20260504031121 47 128 0.0 0.0 0.00 0.00 0.00 55 1012.6
20260504030121 48 123 0.0 0.0 0.00 0.00 0.00 54 1012.6
20260504025121 48 152 0.0 1.0 0.00 0.00 0.00 53 1012.5
20260504024121 48 153 0.0 2.0 0.00 0.00 0.00 51 1012.5
20260504023121 49 28 0.0 1.0 0.00 0.00 0.00 50 1012.6
20260504022121 49 321 0.0 1.0 0.00 0.00 0.00 49 1012.7
20260504021121 49 171 0.0 2.0 0.00 0.00 0.00 50 1012.6
20260504020121 49 97 1.0 2.0 0.00 0.00 0.00 49 1012.6
20260504015121 49 153 0.0 2.0 0.00 0.00 0.00 48 1012.7
20260504014121 50 349 0.0 1.0 0.00 0.00 0.00 46 1012.4
20260504013121 50 143 0.0 2.0 0.00 0.00 0.00 48 1012.3
20260504012121 51 153 0.0 0.0 0.00 0.00 0.00 45 1012.3
20260504011121 52 161 0.0 2.0 0.00 0.00 0.00 45 1012.2
20260504010121 52 150 0.0 1.0 0.00 0.00 0.00 42 1012.0
20260504005142 53 43 0.0 0.0 0.00 0.00 0.00 40 1012.0
20260504004121 54 146 0.0 0.0 0.00 0.00 0.00 38 1011.9
20260504003121 55 266 0.0 2.0 0.00 0.00 0.00 37 1011.7
20260504002121 56 169 0.0 2.0 0.00 0.00 0.00 36 1011.6
20260504001121 56 211 1.0 6.0 0.00 0.00 0.00 36 1011.5
20260504000121 57 244 1.0 4.0 0.00 0.00 0.00 34 1011.4
20260503235142 57 264 1.0 3.0 0.00 0.00 0.00 33 1011.2
20260503234121 58 294 3.0 6.0 0.00 0.00 0.00 32 1011.1
20260503233142 58 268 2.0 5.0 0.00 0.00 0.00 32 1011.1
20260503232121 58 290 3.0 9.0 0.00 0.00 0.00 32 1011.1
20260503231121 59 291 3.0 7.0 0.00 0.00 0.00 32 1011.1
20260503230121 59 266 2.0 7.0 0.00 0.00 0.00 32 1011.0
20260503225121 59 281 3.0 9.0 0.00 0.00 0.00 31 1010.9
20260503224121 59 317 2.0 6.0 0.00 0.00 0.00 32 1011.0
20260503223121 60 312 3.0 6.0 0.00 0.00 0.00 30 1010.9
20260503222121 60 280 3.0 10.0 0.00 0.00 0.00 30 1011.0
20260503221121 60 280 4.0 10.0 0.00 0.00 0.00 30 1010.9
20260503220121 60 303 3.0 8.0 0.00 0.00 0.00 31 1010.9
20260503215121 60 286 3.0 10.0 0.00 0.00 0.00 30 1011.0
20260503214121 59 290 4.0 12.0 0.00 0.00 0.00 30 1010.9
20260503213121 59 321 4.0 10.0 0.00 0.00 0.00 30 1011.0
20260503212121 60 335 2.0 4.0 0.00 0.00 0.00 31 1011.0
20260503211121 58 285 4.0 9.0 0.00 0.00 0.00 29 1010.8
20260503210121 59 298 3.0 9.0 0.00 0.00 0.00 30 1011.0
20260503205121 58 287 3.0 9.0 0.00 0.00 0.00 31 1010.9
20260503204142 59 301 4.0 12.0 0.00 0.00 0.00 31 1011.0
20260503203122 59 306 4.0 9.0 0.00 0.00 0.00 32 1011.0
20260503202122 58 285 5.0 13.0 0.00 0.00 0.00 30 1011.0
20260503201122 58 309 6.0 11.0 0.00 0.00 0.00 31 1011.3
20260503200121 58 276 7.0 13.0 0.00 0.00 0.00 30 1011.3
20260503195121 58 313 6.0 11.0 0.00 0.00 0.00 31 1011.5
20260503194121 58 312 3.0 6.0 0.00 0.00 0.00 33 1011.5
20260503193143 57 292 4.0 8.0 0.00 0.00 0.00 32 1011.7
20260503192122 57 293 4.0 10.0 0.00 0.00 0.00 33 1011.8
20260503191122 58 295 4.0 11.0 0.00 0.00 0.00 32 1011.7
20260503190143 56 275 3.0 17.0 0.00 0.00 0.00 33 1011.9
20260503185122 57 290 5.0 11.0 0.00 0.00 0.00 34 1012.0
20260503184122 56 280 4.0 13.0 0.00 0.00 0.00 36 1011.9
20260503183122 56 299 4.0 12.0 0.00 0.00 0.00 34 1012.1
20260503182143 56 275 5.0 14.0 0.00 0.00 0.00 33 1012.1
20260503181143 56 282 4.0 11.0 0.00 0.00 0.00 33 1012.1
20260503180143 55 293 5.0 13.0 0.00 0.00 0.00 33 1012.2
20260503175122 55 305 5.0 12.0 0.00 0.00 0.00 35 1012.2
20260503174121 55 353 4.0 12.0 0.00 0.00 0.00 33 1012.2
20260503173122 55 289 5.0 9.0 0.00 0.00 0.00 34 1012.2
20260503172122 54 313 5.0 13.0 0.00 0.00 0.00 33 1012.6
20260503171122 54 305 4.0 11.0 0.00 0.00 0.00 34 1012.3
20260503170122 54 285 4.0 11.0 0.00 0.00 0.00 33 1012.5
20260503160141 52 6 4.0 12.0 0.00 0.00 0.00 36 1012.8
20260503150121 50 302 4.0 9.0 0.00 0.00 0.00 43 1013.1
20260503140121 47 349 2.0 4.0 0.00 0.00 0.00 53 1013.3
20260503131120 45 295 4.0 10.0 0.00 0.00 0.00 55 1013.2
20260503130120 46 320 2.0 9.0 0.00 0.00 0.00 54 1013.1
20260503120121 46 311 2.0 4.0 0.00 0.00 0.00 56 1012.7
20260503110121 44 320 2.0 5.0 0.00 0.00 0.00 61 1012.1